User: anonymous   Login
Location: Vancouver
(49.2500°N, 123.1330°W)
Time: 08:19:02
(UTC-08:00)
Language:

H-2A R/B - Orbit

View from above orbital plane
View from above orbital plane
View from above satellite
View from above satellite

Ground track
Ground track

The orbit data is extracted from the following two-line orbital elements,

1 27601U 02056E   18055.18031780 +.00000025 +00000-0 +24709-4 0  9999
2 27601 098.3435 118.8477 0071006 267.8334 111.5768 14.31825780793875
Epoch (UTC): 24 February 2018 04:19:39
Eccentricity: 0.0071006
inclination: 98.3435°
perigee height: 735 km
apogee height: 836 km
right ascension of ascending node: 118.8477°
argument of perigee: 267.8334°
revolutions per day: 14.31825780
mean anomaly at epoch: 111.5768°
orbit number at epoch: 79387

The dashed part of the orbit path shows where the satellite is in the earth's shadow,  

DLR